This is the latest recevied weather packets stored in our database for station/object S57D-6. If no packets are shown the sender has not sent any weather packets the latest 10 day(s).
| Time | Temp. | Humidity | Pressure | Rain* | Wind** | Luminosity | Snow |
|---|---|---|---|---|---|---|---|
| 1777470902 | 10° C | 88% | 1020.6 hPa | 1.02 mm | - | - | - |
| 1777470602 | 10° C | 88% | 1020.5 hPa | 1.02 mm | - | - | - |
| 1777470301 | 10° C | 88% | 1020.5 hPa | 1.52 mm | - | - | - |
| 1777470002 | 9.44° C | 88% | 1020.6 hPa | 1.02 mm | - | - | - |
| 1777469701 | 9.44° C | 88% | 1020.5 hPa | 1.02 mm | - | - | - |
| 1777469401 | 9.44° C | 88% | 1020.6 hPa | 1.52 mm | - | - | - |
| 1777469100 | 9.44° C | 88% | 1020.5 hPa | 1.52 mm | - | - | - |
| 1777468801 | 9.44° C | 87% | 1020.6 hPa | 1.52 mm | - | - | - |
| 1777468499 | 9.44° C | 87% | 1020.6 hPa | 2.03 mm | - | - | - |
| 1777467899 | 9.44° C | 87% | 1020.7 hPa | 1.52 mm | - | - | - |
| 1777467600 | 9.44° C | 88% | 1020.7 hPa | 1.52 mm | - | - | - |
| 1777467298 | 9.44° C | 88% | 1020.8 hPa | 1.52 mm | - | - | - |
| 1777466999 | 9.44° C | 88% | 1020.7 hPa | 1.02 mm | - | - | - |
| 1777466698 | 10° C | 88% | 1020.8 hPa | 1.02 mm | - | - | - |
| 1777466398 | 10° C | 88% | 1020.8 hPa | 1.02 mm | - | - | - |
| 1777466097 | 10° C | 88% | 1020.8 hPa | 1.52 mm | - | - | - |
| 1777465497 | 10° C | 88% | 1020.8 hPa | 1.02 mm | - | - | - |
| 1777465197 | 10° C | 87% | 1020.8 hPa | 1.02 mm | - | - | - |
| 1777464896 | 10° C | 87% | 1020.7 hPa | 0.51 mm | - | - | - |
| 1777464597 | 10° C | 87% | 1020.8 hPa | 0.51 mm | - | - | - |
| 1777464296 | 10° C | 87% | 1020.7 hPa | 1.02 mm | - | - | - |
| 1777463996 | 10° C | 87% | 1020.6 hPa | 1.02 mm | - | - | - |
| 1777463634 | 10° C | 86% | 1020.4 hPa | 1.02 mm | - | - | - |
| 1777463333 | 10° C | 86% | 1020.6 hPa | 1.02 mm | - | - | - |
| 1777463034 | 10° C | 86% | 1020.6 hPa | 1.02 mm | - | - | - |
* Rain latest hour (hover to see other rain measurements)
** Current wind speed in m/s (hover to see current wind gust speed)